Year,Month,Day,Hour,Minute,Value (Times are PST for temperature in C)
2012,08,07,00,00,15.70
2012,08,07,00,01,15.70
2012,08,07,00,02,15.70
2012,08,07,00,03,15.60
2012,08,07,00,04,15.60
2012,08,07,00,05,15.60
2012,08,07,00,06,15.60
2012,08,07,00,07,15.50
2012,08,07,00,08,15.50
2012,08,07,00,09,15.40
2012,08,07,00,10,15.40
2012,08,07,00,11,15.40
2012,08,07,00,12,15.40
2012,08,07,00,13,15.40
2012,08,07,00,14,15.40
2012,08,07,00,15,15.40
2012,08,07,00,16,15.40
2012,08,07,00,17,15.40
2012,08,07,00,18,15.40
2012,08,07,00,19,15.40
2012,08,07,00,20,15.40
2012,08,07,00,21,15.40
2012,08,07,00,22,15.40
2012,08,07,00,23,15.40
2012,08,07,00,24,15.40
2012,08,07,00,25,15.40
2012,08,07,00,26,15.30
2012,08,07,00,27,15.30
2012,08,07,00,28,15.30
2012,08,07,00,29,15.40
2012,08,07,00,30,15.30
2012,08,07,00,31,15.30
2012,08,07,00,32,15.30
2012,08,07,00,33,15.30
2012,08,07,00,34,15.30
2012,08,07,00,35,15.30
2012,08,07,00,36,15.30
2012,08,07,00,37,15.30
2012,08,07,00,38,15.30
2012,08,07,00,39,15.20
2012,08,07,00,40,15.20
2012,08,07,00,41,15.20
2012,08,07,00,42,15.20
2012,08,07,00,43,15.20
2012,08,07,00,44,15.10
2012,08,07,00,45,15.10
2012,08,07,00,46,15.10
2012,08,07,00,47,15.10
2012,08,07,00,48,15.10
2012,08,07,00,49,15.10
2012,08,07,00,50,15.10
2012,08,07,00,51,15.10
2012,08,07,00,52,15.10
2012,08,07,00,53,15.10
2012,08,07,00,54,15.10
2012,08,07,00,55,15.10
2012,08,07,00,56,15.10
2012,08,07,00,57,15.10
2012,08,07,00,58,15.00
2012,08,07,00,59,15.10
2012,08,07,01,00,15.00
2012,08,07,01,01,15.00
2012,08,07,01,02,15.00
2012,08,07,01,03,15.00
2012,08,07,01,04,15.00
2012,08,07,01,05,15.00
2012,08,07,01,06,15.00
2012,08,07,01,07,15.00
2012,08,07,01,08,15.00
2012,08,07,01,09,15.00
2012,08,07,01,10,15.00
2012,08,07,01,11,15.00
2012,08,07,01,12,15.00
2012,08,07,01,13,15.00
2012,08,07,01,14,15.00
2012,08,07,01,15,15.00
2012,08,07,01,16,14.90
2012,08,07,01,17,14.90
2012,08,07,01,18,14.80
2012,08,07,01,19,14.80
2012,08,07,01,20,14.80
2012,08,07,01,21,14.80
2012,08,07,01,22,14.80
2012,08,07,01,23,14.80
2012,08,07,01,24,14.80
2012,08,07,01,25,14.80
2012,08,07,01,26,14.80
2012,08,07,01,27,14.80
2012,08,07,01,28,14.80
2012,08,07,01,29,14.80
2012,08,07,01,30,14.80
2012,08,07,01,31,14.80
2012,08,07,01,32,14.80
2012,08,07,01,33,14.80
2012,08,07,01,34,14.80
2012,08,07,01,35,14.80
2012,08,07,01,36,14.80
2012,08,07,01,37,14.80
2012,08,07,01,38,14.80
2012,08,07,01,39,14.80
2012,08,07,01,40,14.80
2012,08,07,01,41,14.80
2012,08,07,01,42,14.80
2012,08,07,01,43,14.80
2012,08,07,01,44,14.80
2012,08,07,01,45,14.80
2012,08,07,01,46,14.80
2012,08,07,01,47,14.80
2012,08,07,01,48,14.80
2012,08,07,01,49,14.80
2012,08,07,01,50,14.80
2012,08,07,01,51,14.80
2012,08,07,01,52,14.80
2012,08,07,01,53,14.70
2012,08,07,01,54,14.70
2012,08,07,01,55,14.70
2012,08,07,01,56,14.70
2012,08,07,01,57,14.70
2012,08,07,01,58,14.70
2012,08,07,01,59,14.70
2012,08,07,02,00,14.70
2012,08,07,02,01,14.70
2012,08,07,02,02,14.70
2012,08,07,02,03,14.70
2012,08,07,02,04,14.70
2012,08,07,02,05,14.70
2012,08,07,02,06,14.70
2012,08,07,02,07,14.70
2012,08,07,02,08,14.70
2012,08,07,02,09,14.70
2012,08,07,02,10,14.70
2012,08,07,02,11,14.70
2012,08,07,02,12,14.70
2012,08,07,02,13,14.70
2012,08,07,02,14,14.60
2012,08,07,02,15,14.60
2012,08,07,02,16,14.60
2012,08,07,02,17,14.60
2012,08,07,02,18,14.60
2012,08,07,02,19,14.60
2012,08,07,02,20,14.60
2012,08,07,02,21,14.60
2012,08,07,02,22,14.60
2012,08,07,02,23,14.60
2012,08,07,02,24,14.60
2012,08,07,02,25,14.60
2012,08,07,02,26,14.60
2012,08,07,02,27,14.60
2012,08,07,02,28,14.60
2012,08,07,02,29,14.60
2012,08,07,02,30,14.60
2012,08,07,02,31,14.60
2012,08,07,02,32,14.60
2012,08,07,02,33,14.60
2012,08,07,02,34,14.60
2012,08,07,02,35,14.60
2012,08,07,02,36,14.60
2012,08,07,02,37,14.60
2012,08,07,02,38,14.60
2012,08,07,02,39,14.60
2012,08,07,02,40,14.60
2012,08,07,02,41,14.60
2012,08,07,02,42,14.50
2012,08,07,02,43,14.50
2012,08,07,02,44,14.40
2012,08,07,02,45,14.40
2012,08,07,02,46,14.40
2012,08,07,02,47,14.40
2012,08,07,02,48,14.40
2012,08,07,02,49,14.40
2012,08,07,02,50,14.40
2012,08,07,02,51,14.40
2012,08,07,02,52,14.40
2012,08,07,02,53,14.40
2012,08,07,02,54,14.40
2012,08,07,02,55,14.40
2012,08,07,02,56,14.40
2012,08,07,02,57,14.40
2012,08,07,02,58,14.40
2012,08,07,02,59,14.40
2012,08,07,03,00,14.40
2012,08,07,03,01,14.40
2012,08,07,03,02,14.40
2012,08,07,03,06,14.40
2012,08,07,03,07,14.40
2012,08,07,03,08,14.40
2012,08,07,03,09,14.40
2012,08,07,03,10,14.40
2012,08,07,03,11,14.40
2012,08,07,03,12,14.40
2012,08,07,03,13,14.40
2012,08,07,03,14,14.40
2012,08,07,03,15,14.40
2012,08,07,03,16,14.40
2012,08,07,03,17,14.40
2012,08,07,03,18,14.40
2012,08,07,03,19,14.40
2012,08,07,03,20,14.30
2012,08,07,03,21,14.30
2012,08,07,03,22,14.30
2012,08,07,03,23,14.30
2012,08,07,03,24,14.30
2012,08,07,03,25,14.30
2012,08,07,03,26,14.20
2012,08,07,03,27,14.20
2012,08,07,03,28,14.20
2012,08,07,03,29,14.20
2012,08,07,03,30,14.20
2012,08,07,03,31,14.20
2012,08,07,03,32,14.20
2012,08,07,03,33,14.20
2012,08,07,03,34,14.20
2012,08,07,03,35,14.20
2012,08,07,03,36,14.20
2012,08,07,03,37,14.20
2012,08,07,03,38,14.20
2012,08,07,03,39,14.20
2012,08,07,03,40,14.20
2012,08,07,03,41,14.20
2012,08,07,03,42,14.20
2012,08,07,03,43,14.20
2012,08,07,03,44,14.20
2012,08,07,03,45,14.20
2012,08,07,03,46,14.20
2012,08,07,03,47,14.20
2012,08,07,03,48,14.20
2012,08,07,03,49,14.20
2012,08,07,03,50,14.20
2012,08,07,03,51,14.20
2012,08,07,03,52,14.20
2012,08,07,03,53,14.20
2012,08,07,03,54,14.20
2012,08,07,03,55,14.20
2012,08,07,03,56,14.20
2012,08,07,03,57,14.20
2012,08,07,03,58,14.20
2012,08,07,03,59,14.20
2012,08,07,04,00,14.20
2012,08,07,04,01,14.20
2012,08,07,04,02,14.10
2012,08,07,04,03,14.10
2012,08,07,04,04,14.10
2012,08,07,04,05,14.10
2012,08,07,04,06,14.10
2012,08,07,04,07,14.10
2012,08,07,04,08,14.10
2012,08,07,04,09,14.10
2012,08,07,04,10,14.10
2012,08,07,04,11,14.10
2012,08,07,04,12,14.10
2012,08,07,04,13,14.10
2012,08,07,04,14,14.10
2012,08,07,04,15,14.10
2012,08,07,04,16,14.10
2012,08,07,04,17,14.10
2012,08,07,04,18,14.10
2012,08,07,04,19,14.10
2012,08,07,04,20,14.10
2012,08,07,04,21,14.10
2012,08,07,04,22,14.10
2012,08,07,04,23,14.10
2012,08,07,04,24,14.10
2012,08,07,04,25,14.10
2012,08,07,04,26,14.10
2012,08,07,04,27,14.10
2012,08,07,04,28,14.10
2012,08,07,04,29,14.10
2012,08,07,04,30,14.10
2012,08,07,04,31,14.10
2012,08,07,04,32,14.10
2012,08,07,04,33,14.10
2012,08,07,04,34,14.10
2012,08,07,04,35,14.10
2012,08,07,04,36,14.10
2012,08,07,04,37,14.10
2012,08,07,04,38,14.10
2012,08,07,04,39,14.10
2012,08,07,04,40,14.10
2012,08,07,04,41,14.00
2012,08,07,04,42,14.00
2012,08,07,04,43,14.00
2012,08,07,04,44,13.90
2012,08,07,04,45,13.90
2012,08,07,04,46,13.90
2012,08,07,04,47,13.90
2012,08,07,04,48,13.80
2012,08,07,04,49,13.80
2012,08,07,04,50,13.80
2012,08,07,04,51,13.80
2012,08,07,04,52,13.80
2012,08,07,04,53,13.80
2012,08,07,04,54,13.80
2012,08,07,04,55,13.80
2012,08,07,04,56,13.80
2012,08,07,04,57,13.80
2012,08,07,04,58,13.80
2012,08,07,04,59,13.80
2012,08,07,05,00,13.80
2012,08,07,05,01,13.80
2012,08,07,05,02,13.80
2012,08,07,05,03,13.80
2012,08,07,05,04,13.80
2012,08,07,05,05,13.80
2012,08,07,05,06,13.80
2012,08,07,05,07,13.80
2012,08,07,05,08,13.80
2012,08,07,05,09,13.90
2012,08,07,05,10,13.90
2012,08,07,05,11,13.90
2012,08,07,05,12,13.90
2012,08,07,05,13,13.90
2012,08,07,05,14,13.80
2012,08,07,05,15,13.80
2012,08,07,05,16,13.80
2012,08,07,05,17,13.80
2012,08,07,05,18,13.80
2012,08,07,05,19,13.80
2012,08,07,05,20,13.80
2012,08,07,05,21,13.80
2012,08,07,05,22,13.80
2012,08,07,05,23,13.80
2012,08,07,05,24,13.80
2012,08,07,05,25,13.80
2012,08,07,05,26,13.80
2012,08,07,05,27,13.80
2012,08,07,05,28,13.80
2012,08,07,05,29,13.80
2012,08,07,05,30,13.80
2012,08,07,05,31,13.80
2012,08,07,05,32,13.80
2012,08,07,05,33,13.80
2012,08,07,05,34,13.80
2012,08,07,05,35,13.80
2012,08,07,05,36,13.70
2012,08,07,05,37,13.70
2012,08,07,05,38,13.70
2012,08,07,05,39,13.70
2012,08,07,05,40,13.70
2012,08,07,05,41,13.70
2012,08,07,05,42,13.70
2012,08,07,05,43,13.70
2012,08,07,05,44,13.80
2012,08,07,05,45,13.80
2012,08,07,05,46,13.80
2012,08,07,05,47,13.80
2012,08,07,05,48,13.80
2012,08,07,05,49,13.80
2012,08,07,05,50,13.80
2012,08,07,05,51,13.80
2012,08,07,05,52,13.80
2012,08,07,05,53,13.80
2012,08,07,05,54,13.80
2012,08,07,05,55,13.80
2012,08,07,05,56,13.80
2012,08,07,05,57,13.80
2012,08,07,05,58,13.80
2012,08,07,05,59,13.80
2012,08,07,06,00,13.80
2012,08,07,06,01,13.80
2012,08,07,06,02,13.80
2012,08,07,06,03,13.80
2012,08,07,06,04,13.80
2012,08,07,06,05,13.80
2012,08,07,06,06,13.80
2012,08,07,06,07,13.80
2012,08,07,06,08,13.80
2012,08,07,06,09,13.80
2012,08,07,06,10,13.80
2012,08,07,06,11,13.80
2012,08,07,06,12,13.80
2012,08,07,06,13,13.70
2012,08,07,06,14,13.70
2012,08,07,06,15,13.70
2012,08,07,06,16,13.70
2012,08,07,06,17,13.70
2012,08,07,06,18,13.70
2012,08,07,06,19,13.60
2012,08,07,06,20,13.60
2012,08,07,06,21,13.60
2012,08,07,06,22,13.60
2012,08,07,06,23,13.60
2012,08,07,06,24,13.60
2012,08,07,06,25,13.70
2012,08,07,06,26,13.70
2012,08,07,06,27,13.70
2012,08,07,06,28,13.70
2012,08,07,06,29,13.80
2012,08,07,06,30,13.80
2012,08,07,06,31,13.80
2012,08,07,06,32,13.80
2012,08,07,06,33,13.80
2012,08,07,06,34,13.80
2012,08,07,06,35,13.90
2012,08,07,06,36,13.90
2012,08,07,06,37,13.90
2012,08,07,06,38,13.90
2012,08,07,06,39,13.90
2012,08,07,06,40,13.90
2012,08,07,06,41,13.90
2012,08,07,06,42,13.90
2012,08,07,06,43,13.90
2012,08,07,06,44,13.90
2012,08,07,06,45,13.90
2012,08,07,06,46,13.90
2012,08,07,06,47,13.90
2012,08,07,06,48,13.90
2012,08,07,06,49,13.90
2012,08,07,06,50,13.90
2012,08,07,06,51,13.90
2012,08,07,06,52,13.90
2012,08,07,06,53,13.90
2012,08,07,06,54,13.90
2012,08,07,06,55,14.00
2012,08,07,06,56,14.00
2012,08,07,06,57,14.00
2012,08,07,06,58,14.00
2012,08,07,06,59,14.00
2012,08,07,07,00,14.00
2012,08,07,07,01,14.00
2012,08,07,07,02,14.10
2012,08,07,07,03,14.10
2012,08,07,07,04,14.10
2012,08,07,07,05,14.10
2012,08,07,07,06,14.10
2012,08,07,07,07,14.10
2012,08,07,07,08,14.10
2012,08,07,07,09,14.10
2012,08,07,07,10,14.10
2012,08,07,07,11,14.20
2012,08,07,07,12,14.20
2012,08,07,07,13,14.20
2012,08,07,07,14,14.20
2012,08,07,07,15,14.30
2012,08,07,07,16,14.30
2012,08,07,07,17,14.30
2012,08,07,07,18,14.30
2012,08,07,07,19,14.40
2012,08,07,07,20,14.40
2012,08,07,07,21,14.40
2012,08,07,07,22,14.40
2012,08,07,07,23,14.50
2012,08,07,07,24,14.50
2012,08,07,07,25,14.50
2012,08,07,07,26,14.60
2012,08,07,07,27,14.60
2012,08,07,07,28,14.70
2012,08,07,07,29,14.70
2012,08,07,07,30,14.80
2012,08,07,07,31,14.80
2012,08,07,07,32,14.90
2012,08,07,07,33,15.00
2012,08,07,07,34,15.00
2012,08,07,07,35,15.00
2012,08,07,07,36,15.00
2012,08,07,07,37,15.00
2012,08,07,07,38,15.10
2012,08,07,07,39,15.20
2012,08,07,07,40,15.30
2012,08,07,07,41,15.40
2012,08,07,07,42,15.50
2012,08,07,07,43,15.70
2012,08,07,07,44,15.80
2012,08,07,07,45,15.90
2012,08,07,07,46,15.90
2012,08,07,07,47,16.00
2012,08,07,07,48,16.10
2012,08,07,07,49,16.10
2012,08,07,07,50,16.20
2012,08,07,07,51,16.20
2012,08,07,07,52,16.20
2012,08,07,07,53,16.30
2012,08,07,07,54,16.30
2012,08,07,07,55,16.30
2012,08,07,07,56,16.30
2012,08,07,07,57,16.30
2012,08,07,07,58,16.30
2012,08,07,07,59,16.40
2012,08,07,08,00,16.40
2012,08,07,08,01,16.40
2012,08,07,08,02,16.50
2012,08,07,08,03,16.50
2012,08,07,08,04,16.60
2012,08,07,08,05,16.70
2012,08,07,08,06,16.70
2012,08,07,08,07,16.80
2012,08,07,08,08,16.80
2012,08,07,08,09,16.90
2012,08,07,08,10,16.90
2012,08,07,08,11,17.00
2012,08,07,08,12,17.00
2012,08,07,08,13,17.10
2012,08,07,08,14,17.10
2012,08,07,08,15,17.20
2012,08,07,08,16,17.30
2012,08,07,08,17,17.30
2012,08,07,08,18,17.40
2012,08,07,08,19,17.50
2012,08,07,08,20,17.50
2012,08,07,08,21,17.60
2012,08,07,08,22,17.60
2012,08,07,08,23,17.70
2012,08,07,08,24,17.80
2012,08,07,08,25,17.90
2012,08,07,08,26,18.00
2012,08,07,08,27,18.10
2012,08,07,08,28,18.20
2012,08,07,08,29,18.30
2012,08,07,08,30,18.40
2012,08,07,08,31,18.50
2012,08,07,08,32,18.60
2012,08,07,08,33,18.70
2012,08,07,08,34,18.80
2012,08,07,08,35,18.80
2012,08,07,08,36,18.90
2012,08,07,08,37,19.00
2012,08,07,08,38,19.10
2012,08,07,08,39,19.20
2012,08,07,08,40,19.30
2012,08,07,08,41,19.40
2012,08,07,08,42,19.50
2012,08,07,08,43,19.60
2012,08,07,08,44,19.60
2012,08,07,08,45,19.70
2012,08,07,08,46,19.80
2012,08,07,08,47,19.80
2012,08,07,08,48,19.90
2012,08,07,08,49,19.90
2012,08,07,08,50,20.00
2012,08,07,08,51,20.10
2012,08,07,08,52,20.10
2012,08,07,08,53,20.10
2012,08,07,08,54,20.20
2012,08,07,08,55,20.20
2012,08,07,08,56,20.20
2012,08,07,08,57,20.20
2012,08,07,08,58,20.30
2012,08,07,08,59,20.30
2012,08,07,09,00,20.40
2012,08,07,09,01,20.40
2012,08,07,09,02,20.50
2012,08,07,09,03,20.60
2012,08,07,09,04,20.60
2012,08,07,09,05,20.70
2012,08,07,09,06,20.80
2012,08,07,09,07,20.80
2012,08,07,09,08,20.80
2012,08,07,09,09,20.80
2012,08,07,09,10,20.80
2012,08,07,09,11,20.80
2012,08,07,09,12,20.80
2012,08,07,09,13,20.80
2012,08,07,09,14,20.80
2012,08,07,09,15,20.70
2012,08,07,09,16,20.70
2012,08,07,09,17,20.70
2012,08,07,09,18,20.70
2012,08,07,09,19,20.70
2012,08,07,09,20,20.80
2012,08,07,09,21,20.80
2012,08,07,09,22,20.80
2012,08,07,09,23,20.80
2012,08,07,09,24,20.80
2012,08,07,09,25,20.80
2012,08,07,09,26,20.80
2012,08,07,09,27,20.90
2012,08,07,09,28,20.90
2012,08,07,09,29,21.00
2012,08,07,09,30,21.10
2012,08,07,09,31,21.10
2012,08,07,09,32,21.20
2012,08,07,09,33,21.20
2012,08,07,09,34,21.10
2012,08,07,09,35,21.10
2012,08,07,09,36,21.10
2012,08,07,09,37,21.10
2012,08,07,09,38,21.00
2012,08,07,09,39,21.00
2012,08,07,09,40,21.10
2012,08,07,09,41,21.20
2012,08,07,09,42,21.20
2012,08,07,09,43,21.20
2012,08,07,09,44,21.20
2012,08,07,09,45,21.30
2012,08,07,09,46,21.30
2012,08,07,09,47,21.30
2012,08,07,09,48,21.30
2012,08,07,09,49,21.40
2012,08,07,09,50,21.40
2012,08,07,09,51,21.40
2012,08,07,09,52,21.40
2012,08,07,09,53,21.40
2012,08,07,09,54,21.50
2012,08,07,09,55,21.50
2012,08,07,09,56,21.40
2012,08,07,09,57,21.50
2012,08,07,09,58,21.50
2012,08,07,09,59,21.50
2012,08,07,10,00,21.50
2012,08,07,10,01,21.60
2012,08,07,10,02,21.50
2012,08,07,10,03,21.40
2012,08,07,10,04,21.30
2012,08,07,10,05,21.30
2012,08,07,10,06,21.30
2012,08,07,10,07,21.30
2012,08,07,10,08,21.30
2012,08,07,10,09,21.30
2012,08,07,10,10,21.30
2012,08,07,10,11,21.20
2012,08,07,10,12,21.20
2012,08,07,10,13,21.20
2012,08,07,10,14,21.10
2012,08,07,10,15,21.10
2012,08,07,10,16,21.10
2012,08,07,10,17,21.10
2012,08,07,10,18,21.10
2012,08,07,10,19,21.10
2012,08,07,10,20,21.00
2012,08,07,10,21,21.00
2012,08,07,10,22,21.10
2012,08,07,10,23,21.10
2012,08,07,10,24,21.20
2012,08,07,10,25,21.20
2012,08,07,10,26,21.20
2012,08,07,10,27,21.30
2012,08,07,10,28,21.30
2012,08,07,10,29,21.40
2012,08,07,10,30,21.40
2012,08,07,10,31,21.40
2012,08,07,10,32,21.30
2012,08,07,10,33,21.30
2012,08,07,10,34,21.30
2012,08,07,10,35,21.20
2012,08,07,10,36,21.20
2012,08,07,10,37,21.20
2012,08,07,10,38,21.20
2012,08,07,10,39,21.20
2012,08,07,10,40,21.20
2012,08,07,10,41,21.20
2012,08,07,10,42,21.30
2012,08,07,10,43,21.30
2012,08,07,10,44,21.30
2012,08,07,10,45,21.30
2012,08,07,10,46,21.40
2012,08,07,10,47,21.50
2012,08,07,10,48,21.50
2012,08,07,10,49,21.70
2012,08,07,10,50,21.70
2012,08,07,10,51,21.80
2012,08,07,10,52,21.90
2012,08,07,10,53,22.00
2012,08,07,10,54,22.10
2012,08,07,10,55,22.20
2012,08,07,10,56,22.30
2012,08,07,10,57,22.30
2012,08,07,10,58,22.40
2012,08,07,10,59,22.40
2012,08,07,11,00,22.30
2012,08,07,11,01,22.40
2012,08,07,11,02,22.40
2012,08,07,11,03,22.40
2012,08,07,11,04,22.40
2012,08,07,11,05,22.50
2012,08,07,11,06,22.50
2012,08,07,11,07,22.60
2012,08,07,11,08,22.70
2012,08,07,11,09,22.80
2012,08,07,11,10,22.80
2012,08,07,11,11,22.90
2012,08,07,11,12,22.90
2012,08,07,11,13,23.00
2012,08,07,11,14,23.00
2012,08,07,11,15,23.00
2012,08,07,11,16,22.90
2012,08,07,11,17,22.90
2012,08,07,11,18,22.90
2012,08,07,11,19,22.80
2012,08,07,11,20,22.70
2012,08,07,11,21,22.70
2012,08,07,11,22,22.60
2012,08,07,11,23,22.60
2012,08,07,11,24,22.50
2012,08,07,11,25,22.50
2012,08,07,11,26,22.50
2012,08,07,11,27,22.40
2012,08,07,11,28,22.40
2012,08,07,11,29,22.40
2012,08,07,11,30,22.30
2012,08,07,11,31,22.30
2012,08,07,11,32,22.30
2012,08,07,11,33,22.30
2012,08,07,11,34,22.30
2012,08,07,11,35,22.40
2012,08,07,11,36,22.40
2012,08,07,11,37,22.40
2012,08,07,11,38,22.50
2012,08,07,11,39,22.60
2012,08,07,11,40,22.80
2012,08,07,11,41,22.80
2012,08,07,11,42,22.90
2012,08,07,11,43,23.00
2012,08,07,11,44,23.00
2012,08,07,11,45,23.10
2012,08,07,11,46,23.10
2012,08,07,11,47,23.20
2012,08,07,11,48,23.30
2012,08,07,11,49,23.30
2012,08,07,11,50,23.40
2012,08,07,11,51,23.60
2012,08,07,11,52,23.60
2012,08,07,11,53,23.70
2012,08,07,11,54,23.80
2012,08,07,11,55,23.80
2012,08,07,11,56,23.80
2012,08,07,11,57,23.90
2012,08,07,11,58,23.90
2012,08,07,11,59,23.90
2012,08,07,12,00,24.00
2012,08,07,12,01,23.90
2012,08,07,12,02,23.80
2012,08,07,12,03,23.80
2012,08,07,12,04,23.70
2012,08,07,12,05,23.70
2012,08,07,12,06,23.70
2012,08,07,12,07,23.70
2012,08,07,12,08,23.70
2012,08,07,12,09,23.60
2012,08,07,12,10,23.60
2012,08,07,12,11,23.60
2012,08,07,12,12,23.60
2012,08,07,12,13,23.60
2012,08,07,12,14,23.70
2012,08,07,12,15,23.70
2012,08,07,12,16,23.70
2012,08,07,12,17,23.70
2012,08,07,12,18,23.70
2012,08,07,12,19,23.70
2012,08,07,12,20,23.70
2012,08,07,12,21,23.70
2012,08,07,12,22,23.80
2012,08,07,12,23,23.80
2012,08,07,12,24,23.90
2012,08,07,12,25,24.00
2012,08,07,12,26,24.10
2012,08,07,12,27,24.10
2012,08,07,12,28,24.30
2012,08,07,12,29,24.30
2012,08,07,12,30,24.30
2012,08,07,12,31,24.30
2012,08,07,12,32,24.20
2012,08,07,12,33,24.20
2012,08,07,12,34,24.10
2012,08,07,12,35,24.00
2012,08,07,12,36,23.90
2012,08,07,12,37,23.80
2012,08,07,12,38,23.80
2012,08,07,12,39,23.80
2012,08,07,12,40,23.80
2012,08,07,12,41,23.80
2012,08,07,12,42,23.80
2012,08,07,12,43,23.80
2012,08,07,12,44,23.90
2012,08,07,12,45,24.00
2012,08,07,12,46,24.10
2012,08,07,12,47,24.20
2012,08,07,12,48,24.20
2012,08,07,12,49,24.20
2012,08,07,12,50,24.30
2012,08,07,12,51,24.30
2012,08,07,12,52,24.30
2012,08,07,12,53,24.30
2012,08,07,12,54,24.30
2012,08,07,12,55,24.30
2012,08,07,12,56,24.40
2012,08,07,12,57,24.50
2012,08,07,12,58,24.50
2012,08,07,12,59,24.60
2012,08,07,13,00,24.60
2012,08,07,13,01,24.40
2012,08,07,13,02,24.20
2012,08,07,13,03,24.10
2012,08,07,13,04,24.00
2012,08,07,13,05,23.90
2012,08,07,13,06,23.90
2012,08,07,13,07,23.90
2012,08,07,13,08,23.90
2012,08,07,13,09,23.90
2012,08,07,13,10,23.90
2012,08,07,13,11,24.00
2012,08,07,13,12,24.00
2012,08,07,13,13,24.10
2012,08,07,13,14,24.20
2012,08,07,13,15,24.10
2012,08,07,13,16,24.10
2012,08,07,13,17,24.10
2012,08,07,13,18,24.10
2012,08,07,13,19,24.10
2012,08,07,13,20,24.10
2012,08,07,13,21,24.10
2012,08,07,13,22,24.20
2012,08,07,13,23,24.20
2012,08,07,13,24,24.20
2012,08,07,13,25,24.30
2012,08,07,13,26,24.30
2012,08,07,13,27,24.30
2012,08,07,13,28,24.30
2012,08,07,13,29,24.30
2012,08,07,13,30,24.30
2012,08,07,13,31,24.30
2012,08,07,13,32,24.30
2012,08,07,13,33,24.20
2012,08,07,13,34,24.20
2012,08,07,13,35,24.20
2012,08,07,13,36,24.30
2012,08,07,13,37,24.50
2012,08,07,13,38,24.60
2012,08,07,13,39,24.60
2012,08,07,13,40,24.70
2012,08,07,13,41,24.80
2012,08,07,13,42,24.80
2012,08,07,13,43,24.80
2012,08,07,13,44,24.90
2012,08,07,13,45,24.90
2012,08,07,13,46,24.90
2012,08,07,13,47,24.90
2012,08,07,13,48,24.90
2012,08,07,13,49,25.00
2012,08,07,13,50,25.10
2012,08,07,13,51,25.20
2012,08,07,13,52,25.20
2012,08,07,13,53,25.20
2012,08,07,13,54,25.20
2012,08,07,13,55,25.20
2012,08,07,13,56,25.20
2012,08,07,13,57,25.20
2012,08,07,13,58,25.10
2012,08,07,13,59,25.10
2012,08,07,14,00,25.00
2012,08,07,14,01,25.00
2012,08,07,14,02,25.00
2012,08,07,14,03,25.00
2012,08,07,14,04,25.00
2012,08,07,14,05,25.00
2012,08,07,14,06,25.00
2012,08,07,14,07,25.00
2012,08,07,14,08,25.00
2012,08,07,14,09,25.00
2012,08,07,14,10,25.10
2012,08,07,14,11,25.10
2012,08,07,14,12,25.10
2012,08,07,14,13,25.20
2012,08,07,14,14,25.20
2012,08,07,14,15,25.30
2012,08,07,14,16,25.30
2012,08,07,14,17,25.30
2012,08,07,14,18,25.30
2012,08,07,14,19,25.30
2012,08,07,14,20,25.30
2012,08,07,14,21,25.20
2012,08,07,14,22,25.10
2012,08,07,14,23,25.10
2012,08,07,14,24,25.00
2012,08,07,14,25,25.00
2012,08,07,14,26,24.90
2012,08,07,14,27,24.90
2012,08,07,14,28,24.90
2012,08,07,14,29,24.90
2012,08,07,14,30,24.90
2012,08,07,14,31,24.90
2012,08,07,14,32,25.00
2012,08,07,14,33,25.00
2012,08,07,14,34,25.10
2012,08,07,14,35,25.10
2012,08,07,14,36,25.20
2012,08,07,14,37,25.20
2012,08,07,14,38,25.30
2012,08,07,14,39,25.30
2012,08,07,14,40,25.30
2012,08,07,14,41,25.30
2012,08,07,14,42,25.30
2012,08,07,14,43,25.30
2012,08,07,14,44,25.30
2012,08,07,14,45,25.40
2012,08,07,14,46,25.40
2012,08,07,14,47,25.50
2012,08,07,14,48,25.50
2012,08,07,14,49,25.60
2012,08,07,14,50,25.60
2012,08,07,14,51,25.70
2012,08,07,14,52,25.70
2012,08,07,14,53,25.70
2012,08,07,14,54,25.70
2012,08,07,14,55,25.70
2012,08,07,14,56,25.70
2012,08,07,14,57,25.60
2012,08,07,14,58,25.60
2012,08,07,14,59,25.60
2012,08,07,15,00,25.60
2012,08,07,15,01,25.60
2012,08,07,15,02,25.70
2012,08,07,15,03,25.70
2012,08,07,15,04,25.60
2012,08,07,15,05,25.60
2012,08,07,15,06,25.60
2012,08,07,15,07,25.60
2012,08,07,15,08,25.50
2012,08,07,15,09,25.50
2012,08,07,15,10,25.40
2012,08,07,15,11,25.40
2012,08,07,15,12,25.40
2012,08,07,15,13,25.30
2012,08,07,15,14,25.30
2012,08,07,15,15,25.30
2012,08,07,15,16,25.30
2012,08,07,15,17,25.40
2012,08,07,15,18,25.40
2012,08,07,15,19,25.40
2012,08,07,15,20,25.50
2012,08,07,15,21,25.50
2012,08,07,15,22,25.50
2012,08,07,15,23,25.60
2012,08,07,15,24,25.60
2012,08,07,15,25,25.60
2012,08,07,15,26,25.60
2012,08,07,15,27,25.60
2012,08,07,15,28,25.60
2012,08,07,15,29,25.50
2012,08,07,15,30,25.50
2012,08,07,15,31,25.50
2012,08,07,15,32,25.40
2012,08,07,15,33,25.40
2012,08,07,15,34,25.50
2012,08,07,15,35,25.60
2012,08,07,15,36,25.60
2012,08,07,15,37,25.70
2012,08,07,15,38,25.70
2012,08,07,15,39,25.80
2012,08,07,15,40,25.80
2012,08,07,15,41,25.80
2012,08,07,15,42,25.70
2012,08,07,15,43,25.70
2012,08,07,15,44,25.70
2012,08,07,15,45,25.60
2012,08,07,15,46,25.60
2012,08,07,15,47,25.50
2012,08,07,15,48,25.50
2012,08,07,15,49,25.40
2012,08,07,15,50,25.30
2012,08,07,15,51,25.30
2012,08,07,15,52,25.20
2012,08,07,15,53,25.20
2012,08,07,15,54,25.20
2012,08,07,15,55,25.20
2012,08,07,15,56,25.20
2012,08,07,15,57,25.30
2012,08,07,15,58,25.30
2012,08,07,15,59,25.40
2012,08,07,16,00,25.50
2012,08,07,16,01,25.60
2012,08,07,16,02,25.70
2012,08,07,16,03,25.70
2012,08,07,16,04,25.70
2012,08,07,16,05,25.70
2012,08,07,16,06,25.70
2012,08,07,16,07,25.80
2012,08,07,16,08,25.80
2012,08,07,16,09,25.90
2012,08,07,16,10,25.90
2012,08,07,16,11,26.00
2012,08,07,16,12,26.00
2012,08,07,16,13,26.10
2012,08,07,16,14,26.20
2012,08,07,16,15,26.20
2012,08,07,16,16,26.20
2012,08,07,16,17,26.10
2012,08,07,16,18,26.10
2012,08,07,16,19,26.10
2012,08,07,16,20,26.10
2012,08,07,16,21,26.10
2012,08,07,16,22,26.20
2012,08,07,16,23,26.30
2012,08,07,16,24,26.20
2012,08,07,16,25,26.20
2012,08,07,16,26,26.20
2012,08,07,16,27,26.30
2012,08,07,16,28,26.30
2012,08,07,16,29,26.40
2012,08,07,16,30,26.50
2012,08,07,16,31,26.50
2012,08,07,16,32,26.60
2012,08,07,16,33,26.60
2012,08,07,16,34,26.60
2012,08,07,16,35,26.60
2012,08,07,16,36,26.60
2012,08,07,16,37,26.50
2012,08,07,16,38,26.20
2012,08,07,16,39,26.00
2012,08,07,16,40,25.90
2012,08,07,16,41,25.90
2012,08,07,16,42,26.00
2012,08,07,16,43,26.00
2012,08,07,16,44,25.90
2012,08,07,16,45,25.90
2012,08,07,16,46,25.80
2012,08,07,16,47,25.80
2012,08,07,16,48,25.80
2012,08,07,16,49,25.80
2012,08,07,16,50,25.80
2012,08,07,16,51,25.80
2012,08,07,16,52,25.80
2012,08,07,16,53,25.80
2012,08,07,16,54,25.80
2012,08,07,16,55,25.80
2012,08,07,16,56,25.70
2012,08,07,16,57,25.70
2012,08,07,16,58,25.70
2012,08,07,16,59,25.70
2012,08,07,17,00,25.60
2012,08,07,17,01,25.60
2012,08,07,17,02,25.50
2012,08,07,17,03,25.40
2012,08,07,17,04,25.30
2012,08,07,17,05,25.30
2012,08,07,17,06,25.30
2012,08,07,17,07,25.30
2012,08,07,17,08,25.20
2012,08,07,17,09,25.20
2012,08,07,17,10,25.20
2012,08,07,17,11,25.10
2012,08,07,17,12,25.10
2012,08,07,17,13,25.00
2012,08,07,17,14,24.90
2012,08,07,17,15,24.90
2012,08,07,17,16,24.80
2012,08,07,17,17,24.70
2012,08,07,17,18,24.60
2012,08,07,17,19,24.50
2012,08,07,17,20,24.50
2012,08,07,17,21,24.30
2012,08,07,17,22,24.30